Location: Stara Lesna
(49.1528°N, 20.2911°E)
Time: 12:33:28
(UTC+02:00)

Lacrosse 5 - Pass Details

Date: 21 September 2019
Orbit: 715 x 724 km, 57.0° (Epoch: 16 October)

Event Time Altitude Azimuth Distance (km) Brightness Sun altitude
Exits shadow 03:18:11 41° 344° (NNW) 1,040 2.8 -28.6°
Maximum altitude 03:19:18 48° 22° (NNE) 935 2.7 -28.4°
Drops below altitude 10° 03:24:12 10° 97° (E) 2,200 4.9 -27.8°
Sets 03:26:40 0° 103° (ESE) 3,120 5.7 -27.5°
